TimeEDT,TemperatureF,Dew PointF,Humidity,Sea Level PressureIn,VisibilityMPH,Wind Direction,Wind SpeedMPH,Gust SpeedMPH,PrecipitationIn,Events,Conditions,WindDirDegrees,DateUTC
12:14 AM,64.8,62.8,93,29.96,5.0,North,5.8,-,N/A,Rain,Light Rain,360,2012-05-04 04:14:00
12:34 AM,64.4,62.1,92,29.95,10.0,SSE,6.9,-,N/A,,Overcast,150,2012-05-04 04:34:00
12:54 AM,63.9,62.2,94,29.95,10.0,South,3.5,-,N/A,,Mostly Cloudy,180,2012-05-04 04:54:00
1:15 AM,63.7,62.1,94,29.94,10.0,Calm,Calm,-,N/A,Rain,Light Rain,0,2012-05-04 05:15:00
1:34 AM,63.7,62.4,96,29.94,4.0,SSE,3.5,-,N/A,Rain,Heavy Rain,150,2012-05-04 05:34:00
1:54 AM,63.5,62.2,96,29.94,-9999.0,Calm,Calm,-,N/A,,Unknown,0,2012-05-04 05:54:00
2:14 AM,63.7,62.6,96,29.94,4.0,SSE,3.5,-,N/A,Rain,Heavy Rain,150,2012-05-04 06:14:00
2:34 AM,63.5,62.4,96,29.94,7.0,Calm,Calm,-,N/A,Rain,Light Rain,0,2012-05-04 06:34:00
2:54 AM,63.5,62.6,97,29.93,10.0,Calm,Calm,-,N/A,Rain,Light Rain,0,2012-05-04 06:54:00
3:15 AM,63.1,62.2,97,29.95,5.0,Calm,Calm,-,N/A,,Scattered Clouds,0,2012-05-04 07:15:00
3:34 AM,63.0,62.2,97,29.96,4.0,ESE,6.9,-,N/A,Rain,Light Rain,110,2012-05-04 07:34:00
3:54 AM,63.0,62.2,97,29.97,7.0,East,6.9,-,N/A,Rain,Light Rain,90,2012-05-04 07:54:00
4:14 AM,62.8,62.1,97,29.97,5.0,ESE,8.1,-,N/A,Rain,Rain,120,2012-05-04 08:14:00
4:34 AM,62.8,61.9,97,29.97,7.0,ESE,6.9,-,N/A,Rain,Rain,110,2012-05-04 08:34:00
4:54 AM,62.6,61.7,97,29.95,7.0,SE,13.8,-,N/A,Rain,Rain,140,2012-05-04 08:54:00
5:14 AM,62.8,61.7,96,29.96,7.0,ESE,5.8,-,N/A,Rain,Light Rain,120,2012-05-04 09:14:00
5:35 AM,62.2,61.0,96,29.96,7.0,ESE,4.6,-,N/A,,Scattered Clouds,120,2012-05-04 09:35:00
5:54 AM,62.6,61.3,96,29.96,7.0,SSE,4.6,-,N/A,Rain,Light Rain,150,2012-05-04 09:54:00
6:14 AM,61.9,60.8,96,29.94,7.0,Calm,Calm,-,N/A,,Scattered Clouds,0,2012-05-04 10:14:00
6:34 AM,61.7,60.8,97,29.93,7.0,Calm,Calm,-,N/A,,Clear,0,2012-05-04 10:34:00
6:54 AM,61.5,60.8,97,29.93,4.0,Calm,Calm,-,N/A,,Clear,0,2012-05-04 10:54:00
7:15 AM,62.1,61.5,98,29.93,7.0,SSE,4.6,-,N/A,,Clear,160,2012-05-04 11:15:00
7:34 AM,62.6,61.7,97,29.95,7.0,Calm,Calm,-,N/A,,Clear,0,2012-05-04 11:34:00
8:15 AM,62.6,61.3,96,29.93,4.0,ESE,4.6,-,N/A,Rain,Light Rain,120,2012-05-04 12:15:00
8:34 AM,63.0,61.9,96,29.93,4.0,Calm,Calm,-,N/A,Rain,Light Rain,0,2012-05-04 12:34:00
8:54 AM,63.7,62.6,96,29.95,5.0,Calm,Calm,-,N/A,Rain,Light Rain,0,2012-05-04 12:54:00
9:14 AM,64.2,62.6,94,29.96,5.0,Calm,Calm,-,N/A,,Mostly Cloudy,0,2012-05-04 13:14:00
9:34 AM,63.9,62.2,94,29.93,3.0,ENE,4.6,-,N/A,Rain,Light Rain,60,2012-05-04 13:34:00
9:54 AM,63.7,62.6,96,29.93,4.0,SE,3.5,-,N/A,,Overcast,130,2012-05-04 13:54:00
10:14 AM,64.4,63.0,95,29.94,4.0,SSE,5.8,-,N/A,,Overcast,160,2012-05-04 14:14:00
10:34 AM,64.6,63.1,95,29.96,4.0,SSW,4.6,-,N/A,,Overcast,210,2012-05-04 14:34:00
10:54 AM,64.6,63.0,94,29.97,5.0,SSW,6.9,-,N/A,,Overcast,200,2012-05-04 14:54:00
11:14 AM,65.3,63.3,93,29.97,5.0,SSW,5.8,-,N/A,,Overcast,200,2012-05-04 15:14:00
11:34 AM,65.7,63.3,92,29.97,5.0,SSW,4.6,-,N/A,,Overcast,210,2012-05-04 15:34:00
11:54 AM,65.8,63.3,92,29.98,7.0,SSW,3.5,-,N/A,,Overcast,210,2012-05-04 15:54:00
12:14 PM,66.6,63.5,90,29.98,7.0,SSW,5.8,-,N/A,Rain,Light Rain,210,2012-05-04 16:14:00
12:34 PM,66.7,63.5,89,29.99,7.0,WSW,5.8,-,N/A,,Overcast,250,2012-05-04 16:34:00
12:54 PM,67.1,63.7,89,29.98,10.0,SW,5.8,-,N/A,,Overcast,220,2012-05-04 16:54:00
1:14 PM,67.1,63.7,89,29.97,7.0,SSW,5.8,-,N/A,Rain,Light Rain,210,2012-05-04 17:14:00
1:35 PM,68.2,64.8,89,29.97,7.0,Calm,Calm,-,N/A,Rain,Light Rain,0,2012-05-04 17:35:00
1:54 PM,69.3,64.8,86,29.98,10.0,Calm,Calm,-,N/A,,Mostly Cloudy,0,2012-05-04 17:54:00
2:14 PM,70.2,64.0,81,29.98,10.0,SW,4.6,-,N/A,,Scattered Clouds,230,2012-05-04 18:14:00
2:35 PM,70.5,64.0,80,29.98,10.0,WNW,4.6,-,N/A,,Scattered Clouds,300,2012-05-04 18:35:00
2:54 PM,72.7,63.1,72,29.97,10.0,Calm,Calm,-,N/A,,Clear,0,2012-05-04 18:54:00
3:14 PM,73.6,62.6,68,29.96,10.0,WNW,4.6,-,N/A,,Scattered Clouds,300,2012-05-04 19:14:00
3:34 PM,73.2,62.6,69,29.95,10.0,NW,3.5,-,N/A,,Mostly Cloudy,320,2012-05-04 19:34:00
3:54 PM,73.0,60.8,65,29.95,10.0,Calm,Calm,-,N/A,,Overcast,0,2012-05-04 19:54:00
4:14 PM,73.6,61.5,66,29.94,10.0,SW,3.5,-,N/A,,Scattered Clouds,220,2012-05-04 20:14:00
4:34 PM,74.1,62.2,66,29.95,10.0,Calm,Calm,-,N/A,,Mostly Cloudy,0,2012-05-04 20:34:00
4:54 PM,72.5,63.9,74,29.95,10.0,NNE,9.2,-,N/A,,Overcast,20,2012-05-04 20:54:00
5:15 PM,71.8,64.2,77,29.94,10.0,NE,8.1,-,N/A,,Mostly Cloudy,40,2012-05-04 21:15:00
5:34 PM,73.2,64.6,74,29.94,10.0,North,9.2,-,N/A,,Scattered Clouds,360,2012-05-04 21:34:00
5:54 PM,70.2,63.7,80,29.94,10.0,North,10.4,-,N/A,,Scattered Clouds,360,2012-05-04 21:54:00
6:15 PM,68.7,62.8,81,29.95,10.0,North,8.1,-,N/A,,Scattered Clouds,10,2012-05-04 22:15:00
6:34 PM,67.1,62.1,84,29.95,10.0,North,8.1,-,N/A,,Mostly Cloudy,10,2012-05-04 22:34:00
6:54 PM,66.2,61.9,86,29.96,10.0,NNE,6.9,-,N/A,,Overcast,20,2012-05-04 22:54:00
7:15 PM,65.3,61.0,86,29.96,10.0,NE,6.9,-,N/A,,Overcast,50,2012-05-04 23:15:00
7:34 PM,64.4,60.3,86,29.97,10.0,NE,9.2,-,N/A,,Overcast,40,2012-05-04 23:34:00
8:14 PM,63.0,59.2,87,29.97,10.0,NNE,9.2,-,N/A,,Overcast,30,2012-05-05 00:14:00
8:34 PM,63.1,59.2,87,29.99,10.0,NE,4.6,-,N/A,,Overcast,40,2012-05-05 00:34:00
8:54 PM,63.0,59.0,87,29.98,10.0,NNE,5.8,-,N/A,,Overcast,20,2012-05-05 00:54:00
9:14 PM,62.2,58.3,87,29.98,10.0,NNE,6.9,-,N/A,,Overcast,20,2012-05-05 01:14:00
9:34 PM,61.0,57.6,88,30.00,10.0,North,4.6,-,N/A,,Overcast,10,2012-05-05 01:34:00
9:54 PM,59.9,56.7,89,30.01,10.0,NNE,5.8,-,N/A,,Overcast,20,2012-05-05 01:54:00
10:14 PM,59.2,56.3,90,30.02,10.0,North,4.6,-,N/A,,Overcast,360,2012-05-05 02:14:00
10:34 PM,59.0,56.3,91,30.02,7.0,North,5.8,-,N/A,,Overcast,10,2012-05-05 02:34:00
10:54 PM,59.0,56.3,91,30.03,10.0,NE,6.9,-,N/A,,Overcast,40,2012-05-05 02:54:00
11:14 PM,58.5,55.4,90,30.02,10.0,NE,9.2,-,N/A,,Overcast,50,2012-05-05 03:14:00
11:34 PM,58.1,55.0,90,30.03,10.0,NE,6.9,-,N/A,,Overcast,40,2012-05-05 03:34:00
11:54 PM,57.2,54.5,91,30.03,10.0,NE,10.4,-,N/A,,Overcast,50,2012-05-05 03:54:00